User: anonymous   Login
Location: *
(90.0000°N, 180.0000°W)
Time: 01:09:43
(UTC+02:00)
Language:

Cosmos 1825 - Orbit

View from above orbital plane
View from above orbital plane
View from above satellite
View from above satellite

Ground track
Ground track

The orbit data is extracted from the following two-line orbital elements,

1 17566U 87024A   15182.23132929  .00001646  00000-0  83901-4 0  9996
2 17566 082.5068 279.7975 0004413 165.5962 194.5397 15.16098222545107
Epoch (UTC): 01 July 2015 05:33:06
Eccentricity: 0.0004413
inclination: 82.5068°
perigee height: 514 km
apogee height: 520 km
right ascension of ascending node: 279.7975°
argument of perigee: 165.5962°
revolutions per day: 15.16098222
mean anomaly at epoch: 194.5397°
orbit number at epoch: 54510

The dashed part of the orbit path shows where the satellite is in the earth's shadow,  

DLR